| time (UTC) | temp F | wind direction | speed MPH | gust MPH | rain 1hr in | rain 24hr in | rain mn in | humidity % | barometer mb |
| 20260507141607 | 57 | 241 | 2.0 | 12.0 | 0.00 | 0.34 | 0.25 | 55 | 1010.3 |
| 20260507141107 | 56 | 161 | 4.0 | 12.0 | 0.00 | 0.34 | 0.25 | 59 | 1010.4 |
| 20260507140606 | 56 | 177 | 5.0 | 14.0 | 0.00 | 0.34 | 0.25 | 60 | 1010.5 |
| 20260507140107 | 56 | 232 | 2.0 | 10.0 | 0.00 | 0.34 | 0.25 | 61 | 1010.5 |
| 20260507135607 | 56 | 159 | 7.0 | 13.0 | 0.00 | 0.34 | 0.25 | 56 | 1010.5 |
| 20260507134607 | 55 | 197 | 3.0 | 8.0 | 0.00 | 0.34 | 0.25 | 62 | 1010.5 |
| 20260507133606 | 54 | 250 | 3.0 | 9.0 | 0.00 | 0.34 | 0.25 | 65 | 1010.3 |
| 20260507133106 | 54 | 34 | 3.0 | 7.0 | 0.00 | 0.34 | 0.25 | 72 | 1010.2 |
| 20260507132608 | 53 | 246 | 3.0 | 7.0 | 0.00 | 0.34 | 0.25 | 78 | 1010.3 |
| 20260507132107 | 52 | 190 | 3.0 | 7.0 | 0.00 | 0.34 | 0.25 | 81 | 1010.3 |
| 20260507131607 | 51 | 139 | 5.0 | 8.0 | 0.00 | 0.34 | 0.25 | 83 | 1010.4 |
| 20260507131106 | 51 | 300 | 1.0 | 3.0 | 0.00 | 0.34 | 0.25 | 82 | 1010.5 |
| 20260507125607 | 51 | 240 | 2.0 | 5.0 | 0.00 | 0.34 | 0.25 | 86 | 1010.4 |
| 20260507124607 | 50 | 142 | 2.0 | 3.0 | 0.00 | 0.34 | 0.25 | 89 | 1010.3 |
| 20260507123607 | 50 | 355 | 1.0 | 3.0 | 0.00 | 0.34 | 0.25 | 91 | 1010.4 |
| 20260507123107 | 49 | 261 | 2.0 | 9.0 | 0.00 | 0.34 | 0.25 | 90 | 1010.4 |
| 20260507122607 | 49 | 175 | 1.0 | 8.0 | 0.00 | 0.34 | 0.25 | 91 | 1010.4 |
| 20260507122107 | 49 | 247 | 2.0 | 10.0 | 0.00 | 0.34 | 0.25 | 91 | 1010.4 |
| 20260507120607 | 48 | 143 | 2.0 | 8.0 | 0.00 | 0.34 | 0.25 | 92 | 1010.1 |
| 20260507120107 | 48 | 136 | 5.0 | 14.0 | 0.00 | 0.34 | 0.25 | 93 | 1010.0 |
| 20260507115606 | 48 | 316 | 2.0 | 9.0 | 0.00 | 0.34 | 0.25 | 93 | 1010.0 |
| 20260507115106 | 48 | 1 | 2.0 | 6.0 | 0.00 | 0.34 | 0.25 | 94 | 1010.0 |
| 20260507113106 | 48 | 294 | 3.0 | 10.0 | 0.00 | 0.34 | 0.25 | 94 | 1009.9 |
| 20260507112607 | 48 | 161 | 2.0 | 3.0 | 0.00 | 0.34 | 0.25 | 94 | 1010.0 |
| 20260507111606 | 48 | 216 | 1.0 | 5.0 | 0.00 | 0.34 | 0.25 | 95 | 1010.0 |
| 20260507110607 | 49 | 208 | 3.0 | 7.0 | 0.00 | 0.34 | 0.25 | 95 | 1009.8 |
| 20260507105606 | 49 | 170 | 2.0 | 3.0 | 0.00 | 0.34 | 0.25 | 95 | 1009.6 |
| 20260507105107 | 49 | 248 | 1.0 | 5.0 | 0.01 | 0.34 | 0.25 | 95 | 1009.6 |
| 20260507104606 | 49 | 142 | 1.0 | 3.0 | 0.01 | 0.34 | 0.25 | 95 | 1009.5 |
| 20260507104106 | 49 | 143 | 2.0 | 8.0 | 0.01 | 0.34 | 0.25 | 95 | 1009.2 |
| 20260507103607 | 49 | 144 | 2.0 | 3.0 | 0.01 | 0.34 | 0.25 | 95 | 1009.2 |
| 20260507103107 | 49 | 220 | 0.0 | 1.0 | 0.02 | 0.34 | 0.25 | 95 | 1009.5 |
| 20260507102607 | 49 | 220 | 0.0 | 1.0 | 0.02 | 0.34 | 0.25 | 95 | 1009.6 |
| 20260507102107 | 49 | 220 | 0.0 | 1.0 | 0.02 | 0.34 | 0.25 | 95 | 1009.3 |
| 20260507101606 | 49 | 220 | 0.0 | 0.0 | 0.03 | 0.34 | 0.25 | 95 | 1009.3 |
| 20260507100607 | 49 | 220 | 1.0 | 2.0 | 0.04 | 0.34 | 0.25 | 95 | 1009.3 |
| 20260507100106 | 49 | 220 | 0.0 | 1.0 | 0.05 | 0.34 | 0.25 | 95 | 1009.1 |
| 20260507095107 | 49 | 0 | 1.0 | 2.0 | 0.05 | 0.33 | 0.24 | 94 | 1009.1 |
| 20260507094606 | 49 | 171 | 1.0 | 3.0 | 0.05 | 0.33 | 0.24 | 94 | 1009.1 |
| 20260507094107 | 49 | 217 | 1.0 | 2.0 | 0.06 | 0.33 | 0.24 | 94 | 1009.1 |
| 20260507093606 | 49 | 221 | 0.0 | 1.0 | 0.06 | 0.33 | 0.24 | 94 | 1008.8 |
| 20260507093107 | 49 | 221 | 0.0 | 2.0 | 0.05 | 0.32 | 0.23 | 94 | 1008.7 |
| 20260507092607 | 49 | 220 | 1.0 | 3.0 | 0.05 | 0.32 | 0.23 | 94 | 1008.8 |
| 20260507092107 | 49 | 129 | 2.0 | 3.0 | 0.06 | 0.32 | 0.23 | 94 | 1008.6 |
| 20260507091607 | 49 | 288 | 1.0 | 3.0 | 0.05 | 0.31 | 0.22 | 94 | 1008.9 |
| 20260507091107 | 49 | 142 | 2.0 | 5.0 | 0.05 | 0.30 | 0.21 | 94 | 1008.8 |
| 20260507090606 | 49 | 0 | 1.0 | 6.0 | 0.06 | 0.30 | 0.21 | 94 | 1008.6 |
| 20260507085606 | 49 | 219 | 0.0 | 2.0 | 0.05 | 0.29 | 0.20 | 94 | 1009.1 |
| 20260507085106 | 50 | 355 | 1.0 | 6.0 | 0.04 | 0.28 | 0.19 | 94 | 1008.7 |
| 20260507084106 | 50 | 2 | 2.0 | 7.0 | 0.04 | 0.27 | 0.18 | 94 | 1008.6 |
| 20260507083607 | 50 | 248 | 1.0 | 3.0 | 0.05 | 0.27 | 0.18 | 94 | 1009.0 |
| 20260507083107 | 50 | 259 | 3.0 | 8.0 | 0.06 | 0.27 | 0.18 | 94 | 1008.7 |
| 20260507082606 | 50 | 250 | 3.0 | 9.0 | 0.07 | 0.27 | 0.18 | 94 | 1008.6 |
| 20260507082106 | 50 | 198 | 2.0 | 8.0 | 0.07 | 0.26 | 0.17 | 94 | 1008.6 |
| 20260507081607 | 51 | 140 | 1.0 | 3.0 | 0.08 | 0.26 | 0.17 | 94 | 1008.7 |
| 20260507081106 | 51 | 221 | 1.0 | 2.0 | 0.08 | 0.25 | 0.16 | 94 | 1008.9 |
| 20260507080607 | 51 | 228 | 1.0 | 2.0 | 0.07 | 0.24 | 0.15 | 94 | 1009.1 |
| 20260507075606 | 51 | 0 | 1.0 | 3.0 | 0.07 | 0.24 | 0.15 | 94 | 1008.6 |
| 20260507075106 | 51 | 97 | 1.0 | 3.0 | 0.08 | 0.24 | 0.15 | 94 | 1008.7 |
| 20260507074606 | 51 | 249 | 2.0 | 5.0 | 0.08 | 0.23 | 0.14 | 94 | 1008.6 |
| 20260507074106 | 51 | 147 | 1.0 | 2.0 | 0.08 | 0.23 | 0.14 | 94 | 1008.8 |
| 20260507073106 | 51 | 234 | 0.0 | 3.0 | 0.09 | 0.21 | 0.12 | 93 | 1009.1 |
| 20260507072606 | 51 | 243 | 1.0 | 2.0 | 0.09 | 0.20 | 0.11 | 93 | 1009.0 |
| 20260507072106 | 51 | 242 | 0.0 | 2.0 | 0.08 | 0.19 | 0.10 | 93 | 1008.9 |
| 20260507071606 | 51 | 245 | 0.0 | 2.0 | 0.08 | 0.18 | 0.09 | 93 | 1008.7 |
| 20260507071106 | 51 | 245 | 1.0 | 3.0 | 0.08 | 0.17 | 0.08 | 93 | 1008.7 |
| 20260507070606 | 51 | 0 | 1.0 | 3.0 | 0.08 | 0.17 | 0.08 | 93 | 1008.8 |
| 20260507070106 | 52 | 246 | 1.0 | 3.0 | 0.08 | 0.17 | 0.08 | 92 | 1008.8 |
| 20260507065606 | 52 | 240 | 1.0 | 3.0 | 0.08 | 0.17 | 0.08 | 93 | 1008.7 |
| 20260507065106 | 52 | 130 | 1.0 | 3.0 | 0.07 | 0.16 | 0.07 | 92 | 1008.7 |
| 20260507063606 | 52 | 256 | 2.0 | 5.0 | 0.05 | 0.14 | 0.05 | 92 | 1008.8 |
| 20260507063106 | 52 | 348 | 1.0 | 3.0 | 0.03 | 0.12 | 0.03 | 92 | 1009.0 |
| 20260507062607 | 52 | 221 | 1.0 | 2.0 | 0.02 | 0.11 | 0.02 | 92 | 1008.9 |
| 20260507062106 | 52 | 222 | 0.0 | 3.0 | 0.02 | 0.11 | 0.02 | 92 | 1008.2 |
| 20260507061607 | 52 | 0 | 1.0 | 6.0 | 0.01 | 0.10 | 0.01 | 92 | 1007.8 |
| 20260507061106 | 52 | 314 | 2.0 | 6.0 | 0.00 | 0.09 | 0.00 | 92 | 1007.8 |
| 20260507060606 | 52 | 142 | 3.0 | 8.0 | 0.00 | 0.09 | 0.00 | 92 | 1007.8 |
| 20260507060106 | 53 | 243 | 3.0 | 6.0 | 0.00 | 0.09 | 0.00 | 92 | 1007.9 |
| 20260507055607 | 53 | 0 | 1.0 | 3.0 | 0.00 | 0.09 | 0.00 | 92 | 1007.8 |
| 20260507055107 | 53 | 144 | 1.0 | 3.0 | 0.00 | 0.09 | 0.00 | 92 | 1008.0 |
| 20260507054606 | 53 | 139 | 2.0 | 3.0 | 0.00 | 0.09 | 0.00 | 92 | 1008.2 |
| 20260507054106 | 53 | 115 | 1.0 | 3.0 | 0.00 | 0.09 | 0.00 | 93 | 1008.2 |
| 20260507053606 | 53 | 209 | 2.0 | 3.0 | 0.00 | 0.09 | 0.00 | 93 | 1008.1 |
| 20260507053107 | 53 | 263 | 1.0 | 6.0 | 0.00 | 0.09 | 0.00 | 93 | 1008.1 |
| 20260507052606 | 53 | 62 | 1.0 | 3.0 | 0.00 | 0.09 | 0.00 | 93 | 1008.2 |
| 20260507052106 | 53 | 142 | 0.0 | 2.0 | 0.00 | 0.09 | 0.00 | 93 | 1008.2 |
| 20260507051606 | 53 | 141 | 2.0 | 8.0 | 0.00 | 0.09 | 0.00 | 93 | 1008.3 |
| 20260507050606 | 54 | 0 | 1.0 | 2.0 | 0.00 | 0.09 | 0.00 | 94 | 1008.3 |
| 20260507050107 | 54 | 0 | 1.0 | 3.0 | 0.00 | 0.09 | 0.00 | 94 | 1008.2 |
| 20260507045607 | 54 | 144 | 1.0 | 3.0 | 0.00 | 0.09 | 0.00 | 94 | 1008.1 |
| 20260507045106 | 55 | 140 | 0.0 | 2.0 | 0.00 | 0.09 | 0.00 | 94 | 1008.3 |
| 20260507044607 | 55 | 240 | 1.0 | 3.0 | 0.00 | 0.09 | 0.00 | 95 | 1008.4 |
| 20260507044106 | 55 | 143 | 1.0 | 2.0 | 0.00 | 0.09 | 0.00 | 95 | 1008.5 |
| 20260507043606 | 55 | 142 | 2.0 | 3.0 | 0.00 | 0.09 | 0.00 | 95 | 1008.6 |
| 20260507043106 | 55 | 245 | 2.0 | 5.0 | 0.00 | 0.09 | 0.00 | 95 | 1008.5 |
| 20260507042606 | 55 | 245 | 0.0 | 0.0 | 0.00 | 0.09 | 0.00 | 95 | 1008.5 |
| 20260507042106 | 55 | 245 | 1.0 | 3.0 | 0.00 | 0.09 | 0.00 | 95 | 1008.3 |
| 20260507041606 | 56 | 168 | 0.0 | 1.0 | 0.00 | 0.09 | 0.00 | 95 | 1008.2 |
| 20260507041106 | 56 | 168 | 0.0 | 1.0 | 0.00 | 0.09 | 0.00 | 95 | 1008.3 |
| 20260507040607 | 56 | 166 | 0.0 | 2.0 | 0.00 | 0.09 | 0.00 | 95 | 1008.0 |
| 20260507040106 | 56 | 161 | 1.0 | 3.0 | 0.00 | 0.09 | 0.00 | 95 | 1008.0 |
| 20260507035606 | 56 | 136 | 1.0 | 6.0 | 0.00 | 0.09 | 0.09 | 95 | 1008.2 |
| 20260507035106 | 56 | 143 | 0.0 | 3.0 | 0.00 | 0.09 | 0.09 | 95 | 1008.2 |
| 20260507034606 | 57 | 135 | 3.0 | 8.0 | 0.00 | 0.09 | 0.09 | 95 | 1008.1 |
| 20260507033606 | 57 | 248 | 1.0 | 2.0 | 0.01 | 0.09 | 0.09 | 96 | 1008.0 |
| 20260507033106 | 58 | 244 | 2.0 | 8.0 | 0.01 | 0.09 | 0.09 | 96 | 1008.0 |
| 20260507032606 | 58 | 170 | 3.0 | 12.0 | 0.01 | 0.09 | 0.09 | 96 | 1008.1 |
| 20260507032106 | 58 | 169 | 2.0 | 6.0 | 0.01 | 0.09 | 0.09 | 96 | 1008.2 |
| 20260507031606 | 58 | 194 | 0.0 | 1.0 | 0.01 | 0.09 | 0.09 | 96 | 1008.0 |
| 20260507031106 | 58 | 194 | 0.0 | 1.0 | 0.01 | 0.09 | 0.09 | 96 | 1008.0 |
| 20260507030606 | 58 | 194 | 0.0 | 1.0 | 0.01 | 0.09 | 0.09 | 96 | 1007.9 |
| 20260507030106 | 58 | 194 | 0.0 | 2.0 | 0.01 | 0.09 | 0.09 | 96 | 1007.9 |
| 20260507025606 | 57 | 194 | 0.0 | 3.0 | 0.01 | 0.09 | 0.09 | 96 | 1007.9 |
| 20260507025107 | 57 | 140 | 1.0 | 2.0 | 0.01 | 0.09 | 0.09 | 96 | 1007.9 |
| 20260507024606 | 57 | 178 | 0.0 | 2.0 | 0.01 | 0.09 | 0.09 | 96 | 1007.9 |
| 20260507024106 | 57 | 178 | 0.0 | 2.0 | 0.01 | 0.09 | 0.09 | 96 | 1007.9 |
| 20260507023606 | 57 | 178 | 0.0 | 1.0 | 0.00 | 0.08 | 0.08 | 96 | 1007.9 |
| 20260507023106 | 57 | 178 | 0.0 | 1.0 | 0.00 | 0.08 | 0.08 | 96 | 1007.9 |
| 20260507022606 | 57 | 178 | 0.0 | 0.0 | 0.00 | 0.08 | 0.08 | 96 | 1007.8 |
| 20260507022106 | 57 | 178 | 0.0 | 0.0 | 0.00 | 0.08 | 0.08 | 95 | 1007.8 |
| 20260507021106 | 57 | 178 | 0.0 | 0.0 | 0.00 | 0.08 | 0.08 | 95 | 1007.9 |
| 20260507020606 | 57 | 178 | 0.0 | 0.0 | 0.00 | 0.08 | 0.08 | 95 | 1007.9 |
| 20260507020106 | 57 | 178 | 0.0 | 1.0 | 0.00 | 0.08 | 0.08 | 95 | 1008.0 |
| 20260507015606 | 57 | 178 | 0.0 | 1.0 | 0.00 | 0.08 | 0.08 | 95 | 1007.9 |
| 20260507014606 | 57 | 178 | 0.0 | 0.0 | 0.00 | 0.08 | 0.08 | 95 | 1008.0 |
| 20260507014106 | 57 | 178 | 0.0 | 0.0 | 0.00 | 0.08 | 0.08 | 95 | 1008.0 |
| 20260507013606 | 57 | 178 | 0.0 | 0.0 | 0.00 | 0.08 | 0.08 | 95 | 1008.0 |
| 20260507013106 | 57 | 178 | 0.0 | 1.0 | 0.00 | 0.08 | 0.08 | 95 | 1008.0 |
| 20260507012606 | 57 | 178 | 0.0 | 0.0 | 0.00 | 0.08 | 0.08 | 95 | 1008.0 |
| 20260507012105 | 57 | 178 | 0.0 | 0.0 | 0.00 | 0.08 | 0.08 | 95 | 1007.9 |
| 20260507011606 | 57 | 178 | 0.0 | 0.0 | 0.00 | 0.08 | 0.08 | 95 | 1007.9 |
| 20260507010606 | 58 | 178 | 0.0 | 1.0 | 0.00 | 0.08 | 0.08 | 95 | 1007.7 |
| 20260507010106 | 58 | 178 | 0.0 | 0.0 | 0.00 | 0.08 | 0.08 | 95 | 1007.6 |
| 20260507005106 | 58 | 178 | 0.0 | 0.0 | 0.00 | 0.08 | 0.08 | 95 | 1007.7 |
| 20260507004106 | 58 | 178 | 1.0 | 2.0 | 0.00 | 0.08 | 0.08 | 95 | 1007.7 |
| 20260507003606 | 58 | 178 | 1.0 | 2.0 | 0.00 | 0.08 | 0.08 | 95 | 1007.6 |
| 20260507003106 | 58 | 178 | 0.0 | 0.0 | 0.00 | 0.08 | 0.08 | 95 | 1007.6 |
| 20260507002606 | 58 | 178 | 0.0 | 0.0 | 0.00 | 0.08 | 0.08 | 95 | 1007.7 |
| 20260507001606 | 58 | 178 | 0.0 | 0.0 | 0.00 | 0.08 | 0.08 | 95 | 1007.7 |
| 20260507001106 | 58 | 178 | 0.0 | 0.0 | 0.00 | 0.08 | 0.08 | 95 | 1007.5 |
| 20260507000606 | 58 | 178 | 0.0 | 0.0 | 0.00 | 0.08 | 0.08 | 95 | 1007.6 |
| 20260507000106 | 58 | 178 | 0.0 | 0.0 | 0.00 | 0.08 | 0.08 | 95 | 1007.7 |
| 20260506235606 | 58 | 178 | 0.0 | 0.0 | 0.00 | 0.08 | 0.08 | 95 | 1007.7 |
| 20260506235105 | 58 | 178 | 0.0 | 0.0 | 0.00 | 0.08 | 0.08 | 95 | 1007.8 |
| 20260506234606 | 58 | 178 | 0.0 | 0.0 | 0.00 | 0.08 | 0.08 | 95 | 1007.7 |
| 20260506234106 | 58 | 178 | 0.0 | 0.0 | 0.00 | 0.08 | 0.08 | 95 | 1007.7 |
| 20260506233605 | 58 | 178 | 1.0 | 2.0 | 0.00 | 0.08 | 0.08 | 95 | 1007.7 |
| 20260506232606 | 58 | 178 | 0.0 | 1.0 | 0.00 | 0.08 | 0.08 | 95 | 1007.6 |
| 20260506232106 | 58 | 178 | 1.0 | 2.0 | 0.00 | 0.08 | 0.08 | 95 | 1007.6 |
| 20260506231606 | 58 | 178 | 0.0 | 1.0 | 0.00 | 0.08 | 0.08 | 94 | 1007.6 |
| 20260506231106 | 58 | 178 | 0.0 | 1.0 | 0.00 | 0.08 | 0.08 | 94 | 1007.5 |
| 20260506230606 | 58 | 178 | 0.0 | 2.0 | 0.00 | 0.08 | 0.08 | 94 | 1007.5 |
| 20260506230106 | 58 | 203 | 0.0 | 1.0 | 0.00 | 0.08 | 0.08 | 94 | 1007.4 |
| 20260506225106 | 58 | 197 | 1.0 | 2.0 | 0.00 | 0.08 | 0.08 | 94 | 1007.3 |
| 20260506224106 | 58 | 171 | 0.0 | 1.0 | 0.00 | 0.08 | 0.08 | 94 | 1007.3 |
| 20260506223605 | 58 | 171 | 1.0 | 2.0 | 0.00 | 0.08 | 0.08 | 94 | 1007.2 |
| 20260506223106 | 58 | 198 | 0.0 | 1.0 | 0.00 | 0.08 | 0.08 | 94 | 1007.2 |
| 20260506222606 | 58 | 198 | 0.0 | 1.0 | 0.00 | 0.08 | 0.08 | 94 | 1007.2 |
| 20260506221606 | 58 | 240 | 0.0 | 0.0 | 0.00 | 0.08 | 0.08 | 94 | 1007.2 |
| 20260506221106 | 58 | 240 | 0.0 | 1.0 | 0.00 | 0.08 | 0.08 | 94 | 1007.2 |
| 20260506220606 | 58 | 240 | 1.0 | 1.0 | 0.00 | 0.08 | 0.08 | 94 | 1007.2 |
| 20260506215606 | 58 | 211 | 1.0 | 3.0 | 0.00 | 0.08 | 0.08 | 94 | 1007.2 |
| 20260506215106 | 58 | 197 | 0.0 | 3.0 | 0.00 | 0.08 | 0.08 | 94 | 1007.1 |
| 20260506214606 | 59 | 189 | 1.0 | 3.0 | 0.00 | 0.08 | 0.08 | 94 | 1007.1 |
| 20260506213605 | 59 | 182 | 0.0 | 2.0 | 0.00 | 0.08 | 0.08 | 94 | 1007.0 |
| 20260506213106 | 59 | 206 | 0.0 | 1.0 | 0.00 | 0.08 | 0.08 | 94 | 1006.9 |
| 20260506212606 | 59 | 201 | 2.0 | 8.0 | 0.00 | 0.08 | 0.08 | 94 | 1006.9 |
| 20260506212106 | 59 | 172 | 2.0 | 5.0 | 0.00 | 0.08 | 0.08 | 94 | 1006.9 |
| 20260506211605 | 59 | 199 | 0.0 | 1.0 | 0.00 | 0.08 | 0.08 | 94 | 1006.9 |
| 20260506211106 | 59 | 199 | 1.0 | 3.0 | 0.01 | 0.08 | 0.08 | 93 | 1006.9 |
| 20260506210105 | 59 | 172 | 2.0 | 6.0 | 0.01 | 0.08 | 0.08 | 93 | 1007.0 |
| 20260506205606 | 59 | 240 | 0.0 | 1.0 | 0.01 | 0.08 | 0.08 | 93 | 1007.0 |
| 20260506205105 | 59 | 240 | 0.0 | 1.0 | 0.01 | 0.08 | 0.08 | 93 | 1007.2 |
| 20260506204606 | 59 | 240 | 1.0 | 3.0 | 0.01 | 0.08 | 0.08 | 93 | 1007.2 |
| 20260506204106 | 59 | 202 | 0.0 | 3.0 | 0.01 | 0.08 | 0.08 | 93 | 1007.3 |
| 20260506202605 | 59 | 181 | 1.0 | 3.0 | 0.01 | 0.08 | 0.08 | 93 | 1007.5 |
| 20260506202106 | 60 | 180 | 0.0 | 2.0 | 0.01 | 0.08 | 0.08 | 92 | 1007.6 |
| 20260506201106 | 60 | 179 | 0.0 | 2.0 | 0.00 | 0.07 | 0.07 | 92 | 1007.6 |
| 20260506200606 | 60 | 203 | 0.0 | 2.0 | 0.00 | 0.07 | 0.07 | 92 | 1007.5 |
| 20260506200106 | 60 | 182 | 1.0 | 3.0 | 0.00 | 0.07 | 0.07 | 92 | 1007.4 |
| 20260506195606 | 60 | 188 | 1.0 | 3.0 | 0.00 | 0.07 | 0.07 | 92 | 1007.5 |
| 20260506195105 | 60 | 195 | 0.0 | 3.0 | 0.00 | 0.07 | 0.07 | 92 | 1007.6 |
| 20260506194107 | 60 | 157 | 0.0 | 3.0 | 0.00 | 0.07 | 0.07 | 93 | 1007.7 |
| 20260506193606 | 60 | 220 | 0.0 | 2.0 | 0.00 | 0.07 | 0.07 | 93 | 1007.7 |
| 20260506192614 | 61 | 198 | 2.0 | 3.0 | 0.00 | 0.07 | 0.07 | 93 | 1007.8 |
| 20260506192105 | 61 | 207 | 2.0 | 6.0 | 0.00 | 0.07 | 0.07 | 93 | 1007.9 |
| 20260506191606 | 61 | 185 | 1.0 | 6.0 | 0.01 | 0.07 | 0.07 | 93 | 1008.0 |
| 20260506191106 | 61 | 223 | 0.0 | 6.0 | 0.02 | 0.07 | 0.07 | 93 | 1007.9 |
| 20260506190605 | 61 | 192 | 1.0 | 3.0 | 0.02 | 0.07 | 0.07 | 93 | 1008.0 |
| 20260506190106 | 61 | 184 | 2.0 | 5.0 | 0.03 | 0.07 | 0.07 | 93 | 1008.1 |
| 20260506185105 | 60 | 140 | 1.0 | 3.0 | 0.03 | 0.07 | 0.07 | 93 | 1008.3 |
| 20260506184606 | 60 | 228 | 1.0 | 6.0 | 0.03 | 0.07 | 0.07 | 93 | 1008.3 |
| 20260506183106 | 60 | 209 | 0.0 | 2.0 | 0.04 | 0.07 | 0.07 | 93 | 1008.4 |
| 20260506182105 | 60 | 190 | 2.0 | 6.0 | 0.05 | 0.07 | 0.07 | 91 | 1008.5 |
| 20260506181606 | 60 | 201 | 1.0 | 3.0 | 0.04 | 0.06 | 0.06 | 91 | 1008.6 |
| 20260506181105 | 60 | 223 | 0.0 | 3.0 | 0.04 | 0.05 | 0.05 | 91 | 1008.7 |
| 20260506180605 | 60 | 178 | 1.0 | 6.0 | 0.04 | 0.05 | 0.05 | 91 | 1008.7 |
| 20260506180106 | 60 | 196 | 2.0 | 3.0 | 0.03 | 0.04 | 0.04 | 91 | 1008.5 |
| 20260506175606 | 60 | 198 | 0.0 | 3.0 | 0.03 | 0.04 | 0.04 | 91 | 1008.6 |
| 20260506175106 | 60 | 221 | 1.0 | 5.0 | 0.03 | 0.04 | 0.04 | 90 | 1008.5 |
| 20260506174605 | 60 | 199 | 1.0 | 3.0 | 0.03 | 0.04 | 0.04 | 90 | 1008.4 |
| 20260506174105 | 60 | 177 | 2.0 | 12.0 | 0.03 | 0.04 | 0.04 | 90 | 1008.8 |
| 20260506173605 | 60 | 204 | 2.0 | 7.0 | 0.04 | 0.04 | 0.04 | 90 | 1008.9 |
| 20260506172605 | 61 | 202 | 2.0 | 3.0 | 0.03 | 0.03 | 0.03 | 88 | 1009.1 |
| 20260506171606 | 61 | 213 | 1.0 | 2.0 | 0.02 | 0.02 | 0.02 | 88 | 1009.4 |
| 20260506171105 | 61 | 213 | 0.0 | 2.0 | 0.01 | 0.01 | 0.01 | 87 | 1009.5 |
| 20260506170606 | 61 | 205 | 2.0 | 3.0 | 0.01 | 0.01 | 0.01 | 86 | 1009.6 |
| 20260506170105 | 61 | 206 | 2.0 | 6.0 | 0.01 | 0.01 | 0.01 | 86 | 1009.7 |
| 20260506165606 | 62 | 213 | 0.0 | 3.0 | 0.01 | 0.01 | 0.01 | 85 | 1009.8 |
| 20260506164605 | 62 | 223 | 1.0 | 3.0 | 0.01 | 0.01 | 0.01 | 83 | 1009.7 |
| 20260506164106 | 63 | 209 | 1.0 | 2.0 | 0.01 | 0.01 | 0.01 | 82 | 1009.8 |
| 20260506163605 | 63 | 221 | 1.0 | 6.0 | 0.00 | 0.00 | 0.00 | 81 | 1009.8 |
| 20260506163105 | 64 | 234 | 3.0 | 6.0 | 0.00 | 0.00 | 0.00 | 80 | 1009.8 |
| 20260506162606 | 64 | 218 | 1.0 | 3.0 | 0.00 | 0.00 | 0.00 | 79 | 1009.8 |
| 20260506162106 | 64 | 225 | 1.0 | 8.0 | 0.00 | 0.00 | 0.00 | 78 | 1009.8 |
| 20260506161605 | 64 | 208 | 2.0 | 8.0 | 0.00 | 0.00 | 0.00 | 77 | 1009.8 |
| 20260506161106 | 65 | 269 | 2.0 | 3.0 | 0.00 | 0.00 | 0.00 | 77 | 1009.8 |
| 20260506160606 | 65 | 176 | 3.0 | 9.0 | 0.00 | 0.00 | 0.00 | 77 | 1009.8 |
| 20260506160106 | 65 | 215 | 2.0 | 6.0 | 0.00 | 0.00 | 0.00 | 77 | 1009.9 |
| 20260506155106 | 65 | 213 | 2.0 | 7.0 | 0.00 | 0.00 | 0.00 | 78 | 1010.1 |
| 20260506154606 | 65 | 175 | 2.0 | 16.0 | 0.00 | 0.00 | 0.00 | 79 | 1010.0 |
| 20260506153605 | 65 | 207 | 2.0 | 6.0 | 0.00 | 0.00 | 0.00 | 79 | 1010.1 |
| 20260506152106 | 65 | 194 | 2.0 | 8.0 | 0.00 | 0.00 | 0.00 | 78 | 1010.1 |
| 20260506151605 | 65 | 198 | 2.0 | 6.0 | 0.00 | 0.00 | 0.00 | 78 | 1010.0 |
| 20260506151105 | 65 | 214 | 2.0 | 6.0 | 0.00 | 0.00 | 0.00 | 78 | 1009.9 |
| 20260506150605 | 65 | 221 | 1.0 | 3.0 | 0.00 | 0.00 | 0.00 | 77 | 1010.0 |
| 20260506150105 | 65 | 194 | 2.0 | 3.0 | 0.00 | 0.00 | 0.00 | 77 | 1010.0 |
| 20260506145606 | 66 | 189 | 2.0 | 9.0 | 0.00 | 0.00 | 0.00 | 76 | 1010.1 |
| 20260506145105 | 66 | 193 | 2.0 | 5.0 | 0.00 | 0.00 | 0.00 | 76 | 1009.9 |
| 20260506144605 | 66 | 197 | 1.0 | 8.0 | 0.00 | 0.00 | 0.00 | 75 | 1010.0 |
| 20260506144105 | 66 | 206 | 3.0 | 6.0 | 0.00 | 0.00 | 0.00 | 76 | 1010.1 |
| 20260506142606 | 67 | 207 | 2.0 | 3.0 | 0.00 | 0.00 | 0.00 | 74 | 1010.3 |
| 20260506142106 | 67 | 213 | 2.0 | 9.0 | 0.00 | 0.00 | 0.00 | 76 | 1010.2 |